Weather in Voskhod

Russia / Republic of Kalmykia     47°52′55″N   45°17′39″E
temp.,
°C
wind,
m/s
gust,
m/s
humid.,
%
clouds,
%
prec.,
mm/h
press.,
hPa
HPBL,
m
5 december, sun
sun500:00+6s41186100 0.0 1014294
03:00+6sse1191100 0.0 101413
06:00+5se3493100 0.0 101390
09:00+6sse3693100 0.0 1013238
12:00+7s3589100 0.2 1013295
15:00+7se3492100 0.8 1012169
18:00+7s51088100 0.3 1012356
21:00+7ssw41092100 1.1 1013408
6 december, mon
mon600:00+7ssw3478100 0.2 1013123
03:00+7nnw3589100 0.3 1015186
06:00+5nnw4590100 0.1 1017269
09:00+4nnw4489100 0.3 1019286
12:00+4nnw3386100 0.0 1020319
15:00+5nnw3384100 0.0 1021343
18:00+4nw3385100 0.0 1023208
21:00+4nnw238496 0.0 1024179
7 december, tue
tue700:00+3n2287100 0.0 102420
03:00+2ne2291100 0.0 102430
06:00+2e339280 0.0 102541
09:00+3ese34895 0.0 1026142
12:00+7ese45725 0.0 1025376
15:00+7ese5873100 0.0 1024338
18:00+5ese51083100 0.0 1024232
21:00+5ese61385100 0.0 1023280
8 december, wed
wed800:00+5ese6158842 0.0 1021328
03:00+5ese71787100 0.0 1020390
06:00+5ese8198386 0.0 1018430
09:00+6ese9197676 0.0 1018532
12:00+10ese918594 0.0 1016763
15:00+10ese916575 0.0 1015698
18:00+7ese81662100 0.0 1015536
21:00+6ese81663100 0.0 1015555
9 december, thu
thu900:00+6ese71461100 0.0 1014489
03:00+6ese51063100 0.0 1014405
06:00+5ese4769100 0.0 1015301
09:00+5ese3572100 0.0 1016265
12:00+6e2267100 0.0 1016334
15:00+7ene1168100 0.0 1016197
18:00+6sse1176100 0.0 101710
21:00+5wnw2275100 0.0 101815